If you wish to contribute or participate in the discussions about articles you are invited to join SKYbrary as a registered user

 Actions

Argyle Airport

From SKYbrary Wiki

YARG
Airport
ICAO: YARG – IATA: GYL
Summary
Name Argyle Airport
Region Asia and Pacific
Territory Australia AU.gif
Location Argyle, Western Australia
Serving Argyle
Elevation 159.106 m
522 ft
522 ft159.106 m
Type small airport
Coordinates 16° 38' 12.84" S, 128° 27' 3.60" E
Runways
Designator Length Width Surface ROPS
1/19 2300 m7,545.932 ft
30 m98.425 ft
ASP /


METAR
Observation YARG 270000Z AUTO 12004KT 060V180 9999 // NCD 21/M05 Q1020
Station Argyle Airport
Date/Time 27 June 2019 00:00:00
Wind direction 120°
Wind speed 04 kts
Lowest cloud amount no clouds detected
Temperature 21°C
Dew point
Humidity 16%
QNH 1020 hPa
Weather condition n/a